Weather in Semisotka

Russia / Republic of Crimea     45°14′34″N   35°33′35″E
temp.,
°C
wind,
m/s
gust,
m/s
humid.,
%
clouds,
%
prec.,
mm/h
press.,
hPa
HPBL,
m
3 march, wed
wed300:00+3wsw7147640 0.0 1024609
03:00+4w9157558 0.0 1022762
06:00+4nw81175100 0.3 1022831
09:00+4nnw91170100 0.4 10241426
12:00+4nnw8107384 0.1 1025928
15:00+5nnw796451 0.1 1026903
18:00+5nw58640 0.0 1026419
21:00+4nw44710 0.0 102893
4 march, thu
thu400:00+4w33730 0.0 102848
03:00+2w34760 0.0 102884
06:00+2wsw23730 0.0 102687
09:00+5ssw34621 0.0 1026283
12:00+8ssw67581 0.0 1024892
15:00+9ssw78561 0.0 1023777
18:00+7ssw811670 0.0 1021410
21:00+5ssw712740 0.0 1020420
5 march, fri
fri500:00+5ssw813770 0.0 1019472
03:00+5ssw913760 0.0 1019410
06:00+5ssw813810 0.0 1017346
09:00+7s812750 0.0 1017414
12:00+9s1013640 0.0 1016518
15:00+10s1013598 0.0 1015504
18:00+8ssw914733 0.0 1014363
21:00+8ssw8157643 0.0 1014393
6 march, sat
sat600:00+7ssw7128133 0.0 1014284
03:00+6wsw228734 0.0 101426
06:00+6n118398 0.0 101422
09:00+6n679199 0.0 1016387
12:00+4nnw7889100 0.1 1017400
15:00+2n7995100 0.5 1018543
18:00+4n81061100 0.3 10191030
21:00+4n7954100 0.3 1022980
7 march, sun
sun700:00+3n7948100 0.0 1024836
03:00+2n685754 0.0 1025605
06:000nnw57680 0.1 1026488
09:00+2nw444115 0.1 10271390
12:00+3wnw45360 0.0 10271289
15:00+5w58360 0.0 10251926
18:00+5w684861 0.0 10231597
21:00+2wsw6105575 0.0 1023463